Le nostre stazioni meteo in Italia

Pubblicità
Il mio iltempo24.it
Writtle, Gran Bretagna (99127): Temperatura & dewpoint: 01.04.2020 23:00:00 - 07.04.2020 23:00:00 (BST)Writtle, Gran Bretagna (99127): Temperatura -20cm: 01.04.2020 23:00:00 - 07.04.2020 23:00:00 (BST)Writtle, Gran Bretagna (99127): precipitazioni: 01.04.2020 23:00:00 - 07.04.2020 23:00:00 (BST)
Data & Tempo tt [°C] td [°C] tt -20cm [°C] rr [mm]
07.04.2020 23:00:00 7,4 5,1 - 0,0
07.04.2020 22:00:00 8,9 5,8 - 0,0
07.04.2020 21:00:00 10,2 5,7 - 0,0
07.04.2020 20:00:00 11,7 5,8 - 0,0
07.04.2020 19:00:00 14,0 5,4 - 0,0
07.04.2020 18:00:00 15,7 3,0 - 0,0
07.04.2020 17:00:00 16,5 2,3 - 0,0
07.04.2020 16:00:00 16,6 1,4 - 0,0
07.04.2020 15:00:00 16,4 3,4 - 0,0
07.04.2020 14:00:00 17,0 0,7 - 0,0
07.04.2020 13:00:00 16,6 4,7 - 0,0
07.04.2020 12:00:00 15,9 4,9 - 0,0
07.04.2020 11:00:00 15,0 6,1 - 0,0
07.04.2020 10:00:00 13,5 5,6 8,4 0,0
07.04.2020 09:00:00 8,9 5,0 - 0,0
07.04.2020 08:00:00 4,2 3,7 - 0,0
07.04.2020 07:00:00 0,8 0,3 - 0,2
07.04.2020 06:00:00 0,7 0,2 - 0,0
07.04.2020 05:00:00 1,1 0,4 - 0,0
07.04.2020 04:00:00 1,4 0,6 - 0,0
07.04.2020 03:00:00 2,0 1,0 - 0,0
07.04.2020 02:00:00 2,7 1,5 - 0,0
07.04.2020 01:00:00 4,1 2,4 - 0,0
07.04.2020 00:00:00 4,4 2,4 - 0,0
06.04.2020 23:00:00 5,6 2,4 - 0,0
06.04.2020 22:00:00 7,7 3,1 - 0,0
06.04.2020 21:00:00 9,7 3,4 - 0,0
06.04.2020 20:00:00 13,5 3,6 - 0,0
06.04.2020 19:00:00 14,9 3,3 - 0,0
06.04.2020 18:00:00 16,0 1,9 - 0,0
06.04.2020 17:00:00 17,2 2,4 - 0,0
06.04.2020 16:00:00 17,6 3,4 - 0,0
06.04.2020 15:00:00 17,4 3,0 - 0,0
06.04.2020 14:00:00 16,9 6,8 - 0,0
06.04.2020 13:00:00 14,6 8,5 - 0,0
06.04.2020 12:00:00 11,9 8,0 - 0,0
06.04.2020 11:00:00 12,0 9,2 - 0,0
06.04.2020 10:00:00 14,3 9,6 8,2 0,0
06.04.2020 09:00:00 13,5 9,0 - 0,0
06.04.2020 08:00:00 12,5 7,3 - 0,0
06.04.2020 07:00:00 12,0 6,3 - 0,0
06.04.2020 06:00:00 11,5 5,2 - 0,0
06.04.2020 05:00:00 11,3 4,3 - 0,0
06.04.2020 04:00:00 11,4 4,2 - 0,0
06.04.2020 03:00:00 11,0 2,7 - 0,0
06.04.2020 02:00:00 13,0 2,9 - 0,0
06.04.2020 01:00:00 12,9 3,8 - 0,0
06.04.2020 00:00:00 11,8 3,5 - 0,0
05.04.2020 23:00:00 13,1 3,6 - 0,0
05.04.2020 22:00:00 14,0 3,6 - 0,0
05.04.2020 21:00:00 14,9 3,3 - 0,0
05.04.2020 20:00:00 16,4 3,2 - 0,0
05.04.2020 19:00:00 18,1 2,8 - 0,0
05.04.2020 18:00:00 19,1 0,9 - 0,0
05.04.2020 17:00:00 20,0 1,1 - 0,0
05.04.2020 16:00:00 19,3 4,0 - 0,0
05.04.2020 15:00:00 19,0 3,8 - 0,0
05.04.2020 14:00:00 18,7 3,1 - 0,0
05.04.2020 13:00:00 17,8 2,9 - 0,0
05.04.2020 12:00:00 16,9 4,1 - 0,0
05.04.2020 11:00:00 15,1 3,2 - 0,0
05.04.2020 10:00:00 13,0 4,5 7,7 0,0
05.04.2020 09:00:00 10,0 5,3 - 0,0
05.04.2020 08:00:00 8,0 4,8 - 0,0
05.04.2020 07:00:00 5,5 5,2 - 0,0
05.04.2020 06:00:00 1,6 1,1 - 0,0
05.04.2020 05:00:00 1,9 1,2 - 0,0
05.04.2020 04:00:00 2,1 1,3 - 0,0
05.04.2020 03:00:00 2,8 1,8 - 0,0
05.04.2020 02:00:00 4,6 3,3 - 0,0
05.04.2020 01:00:00 4,9 3,8 - 0,0
05.04.2020 00:00:00 4,9 3,2 - 0,0
04.04.2020 23:00:00 5,5 3,5 - 0,0
04.04.2020 22:00:00 7,2 3,8 - 0,0
04.04.2020 21:00:00 8,3 4,2 - 0,0
04.04.2020 20:00:00 9,5 4,2 - 0,0
04.04.2020 19:00:00 11,8 4,1 - 0,0
04.04.2020 18:00:00 13,7 3,2 - 0,0
04.04.2020 17:00:00 14,9 1,6 - 0,0
04.04.2020 16:00:00 15,3 2,9 - 0,0
04.04.2020 15:00:00 14,9 3,3 - 0,0
04.04.2020 14:00:00 13,8 3,6 - 0,0
04.04.2020 13:00:00 13,6 5,2 - 0,0
04.04.2020 12:00:00 12,3 3,7 - 0,0
04.04.2020 11:00:00 10,9 5,2 - 0,0
04.04.2020 10:00:00 9,3 5,1 7,7 0,0
04.04.2020 09:00:00 8,0 5,6 - 0,0
04.04.2020 08:00:00 3,8 3,6 - 0,0
04.04.2020 07:00:00 -0,5 -0,9 - 0,0
04.04.2020 06:00:00 -0,4 -0,9 - 0,0
04.04.2020 05:00:00 0,1 -0,5 - 0,0
04.04.2020 04:00:00 0,8 0,1 - 0,0
04.04.2020 03:00:00 1,4 0,7 - 0,0
04.04.2020 02:00:00 1,6 0,8 - 0,0
04.04.2020 01:00:00 1,9 0,8 - 0,0
04.04.2020 00:00:00 2,2 0,5 - 0,0
03.04.2020 23:00:00 3,8 1,7 - 0,0
03.04.2020 22:00:00 6,1 2,9 - 0,0
03.04.2020 21:00:00 9,3 2,4 - 0,0
03.04.2020 20:00:00 8,9 3,1 - 0,0
03.04.2020 19:00:00 10,5 0,8 - 0,0
03.04.2020 18:00:00 11,7 2,0 - 0,0
03.04.2020 17:00:00 11,8 1,8 - 0,0
03.04.2020 16:00:00 11,2 1,9 - 0,0
03.04.2020 15:00:00 11,1 2,1 - 0,0
03.04.2020 14:00:00 10,2 1,4 - 0,0
03.04.2020 13:00:00 10,2 1,7 - 0,0
03.04.2020 12:00:00 9,8 1,8 - 0,0
03.04.2020 11:00:00 9,6 2,7 - 0,0
03.04.2020 10:00:00 8,7 1,8 7,5 0,0
03.04.2020 09:00:00 7,7 1,9 - 0,0
03.04.2020 08:00:00 6,9 1,9 - 0,0
03.04.2020 07:00:00 6,4 1,3 - 0,0
03.04.2020 06:00:00 6,3 1,1 - 0,0
03.04.2020 05:00:00 7,0 0,4 - 0,0
03.04.2020 04:00:00 7,4 0,6 - 0,0
03.04.2020 03:00:00 7,7 1,9 - 0,0
03.04.2020 02:00:00 8,4 1,9 - 0,0
03.04.2020 01:00:00 8,2 2,4 - 0,0
03.04.2020 00:00:00 8,7 2,3 - 0,0
02.04.2020 23:00:00 8,9 2,0 - 0,0
02.04.2020 22:00:00 8,8 1,9 - 0,0
02.04.2020 21:00:00 10,0 2,1 - 0,0
02.04.2020 20:00:00 10,7 4,7 - 0,0
02.04.2020 19:00:00 11,4 4,6 - 0,0
02.04.2020 18:00:00 12,2 4,8 - 0,0
02.04.2020 17:00:00 12,4 4,6 - 0,0
02.04.2020 16:00:00 12,6 4,3 - 0,0
02.04.2020 15:00:00 13,7 3,6 - 0,0
02.04.2020 14:00:00 12,4 1,9 - 0,0
02.04.2020 13:00:00 11,3 2,4 - 0,0
02.04.2020 12:00:00 10,6 2,9 - 0,0
02.04.2020 11:00:00 10,3 4,0 - 0,0
02.04.2020 10:00:00 8,5 3,5 7,0 0,0
02.04.2020 09:00:00 7,2 3,1 - 0,0
02.04.2020 08:00:00 5,7 2,3 - 0,0
02.04.2020 07:00:00 2,9 1,1 - 0,0
02.04.2020 06:00:00 3,5 1,2 - 0,0
02.04.2020 05:00:00 4,4 1,3 - 0,0
02.04.2020 04:00:00 4,9 1,6 - 0,0
02.04.2020 03:00:00 5,3 1,6 - 0,0
02.04.2020 02:00:00 5,2 1,3 - 0,0
02.04.2020 01:00:00 5,3 1,2 - 0,0
02.04.2020 00:00:00 5,2 1,2 - 0,0
01.04.2020 23:00:00 5,0 1,1 - 0,0

tt = Temperatura
td = dewpoint
tt -20cm = Temperatura -20cm
rr = precipitazioni

Stazioni seguenti

WeatherPro
AMSI
MeteoEarth